Find Starlink 5836

NORAD ID: 56386 Int'l Des: 2023-061 Owner: SPXS Country: US Constellation: starlink operational
LEOCIRCULAR

現在のビュー

3D地球を読み込み中...

About Starlink 5836

Starlink 5836 (NORAD 56386) is a starlink constellation satellite (v1.5) launched May 4, 2023 by SPXS of US. It operates in LEO, CIRCULAR orbit with a mass of 305.00 kg.

次回通過

Passes for default location (London). Set your location on the main map for personalized predictions.

高度履歴

Loading altitude history...

軌道要素

1 56386U 23061N 26263.12883804 -.00000325 00000-0 -22957-5 0 9995
2 56386 43.0003 180.0585 0000951 237.8667 122.2093 15.27575138186481
Epoch: Sep 20, 2026 • Age: 30 hours

現在のステータス

高度 486.8 km
遠地点 / 近地点 N/A
速度 7.63 km/s
衛星直下点 43.15°N, 121.53°E
打ち上げ日 May 4, 2023
運用期間 3.3 years
タイプ internet

技術仕様

分類 Payload
質量 305.00 kg
乾燥質量 290.00 kg
長さ 0.20 m
スパン 9.00 m
形状 ? Box + pan
製造者 SPXS
バスタイプ Starlink
フェーズステータス In Orbit
所有者/国 SPXS/US

Most Searched